Temperature
17 16 15 14 14 14 14 14 14 14 14 14 13 13 13 13 13 13 13 13 13 13 13 13 13 12 12 12 13 12 13 13 13 13 13 13 12 12 12 13 13 13 13
19 16 15 14 14 14 14 14 14 14 13 13 13 13 13 13 13 13 13 12 12 12 12 12 12 12 12 12 12 12 12 13 13 13 13 12 12 12 12 12 12 12 12
18 17 15 14 14 14 14 13 13 13 13 13 13 12 12 12 12 12 12 12 12 12 12 12 12 11 11 11 12 12 12 13 13 12 12 12 11 11 11 11 11 11 11
18 17 15 14 14 14 13 13 13 13 13 12 12 12 12 12 12 11 12 12 12 12 12 12 12 11 11 11 11 12 12 12 12 12 12 11 11 10 10 10 10 10 10
17 16 15 14 14 13 13 13 13 13 12 12 12 12 12 12 11 11 11 11 12 12 12 12 11 11 11 11 11 12 12 12 12 11 11 11 10 9 9 9 10 9 10
17 16 15 14 14 13 13 13 13 12 12 12 12 12 12 12 11 11 11 11 11 12 12 12 11 11 11 11 11 12 12 11 11 11 11 10 10 9 9 9 9 9 9
17 16 14 14 13 13 13 13 13 13 12 12 12 12 12 12 11 11 11 11 11 11 11 11 11 11 11 11 11 11 11 11 11 11 10 10 9 9 9 9 9 9 9
17 16 14 14 13 13 13 13 13 12 12 12 12 12 12 11 11 11 11 11 11 11 11 11 11 11 11 11 11 11 11 10 10 10 10 10 9 9 9 9 9 9 9
17 15 14 14 13 13 13 13 13 13 12 12 12 12 12 11 11 11 11 11 11 11 11 10 10 10 10 10 10 10 10 10 10 10 10 9 9 8 8 8 8 8 8
16 15 15 14 13 13 13 13 13 12 12 12 12 12 12 12 11 11 11 11 11 11 11 10 10 10 10 10 10 10 10 10 9 9 9 9 8 8 8 8 8 8 8
15 15 15 14 14 13 13 13 12 12 12 12 12 12 12 12 11 12 11 11 11 11 10 10 10 10 10 10 10 9 9 9 9 9 9 8 8 8 8 8 8 8 8
17 16 15 15 14 14 13 13 12 12 12 12 12 12 12 12 12 11 11 11 11 10 10 10 10 10 10 9 9 9 9 9 9 8 8 8 8 7 7 8 8 8 7
19 17 16 15 15 14 13 13 12 12 12 12 12 12 12 12 11 11 11 11 11 10 10 10 10 10 9 9 9 9 9 8 8 8 8 8 8 7 7 7 7 7 7
19 18 17 16 15 14 14 13 13 13 12 12 12 11 11 11 11 11 11 11 10 10 10 10 10 9 9 9 9 8 8 8 8 8 8 8 8 7 7 7 7 7 7
19 18 17 16 15 14 14 14 13 13 13 12 12 11 11 11 11 11 10 10 10 10 10 9 9 9 9 8 8 8 8 8 8 8 8 8 8 7 7 7 6 6 6
20 19 18 17 16 15 14 14 14 13 13 12 12 12 11 11 11 10 10 10 10 10 9 9 9 9 8 8 8 8 8 8 8 8 8 8 8 8 7 7 7 6 6
20 19 18 18 16 15 15 14 14 13 13 12 12 11 11 11 10 10 10 10 10 9 9 9 9 8 8 8 8 8 8 8 8 8 8 8 8 8 8 7 7 7 6
20 19 19 18 17 16 15 15 14 14 13 13 12 12 11 11 10 10 10 9 9 9 9 9 9 8 8 8 8 8 8 8 8 8 8 8 8 7 7 7 7 7 7
20 19 18 18 17 17 16 14 14 13 13 13 12 12 11 11 10 10 10 9 9 9 9 9 8 8 8 8 8 8 8 8 8 8 8 8 7 7 7 7 7 7 7
19 19 18 18 17 16 15 13 13 12 13 12 12 12 11 11 10 10 10 9 9 9 9 9 8 8 8 8 8 8 8 8 8 8 8 7 7 7 7 7 7 7 7
19 18 18 17 17 16 14 13 13 13 13 13 12 12 11 11 10 10 10 9 9 9 9 9 8 8 8 8 8 8 8 8 8 8 8 7 7 7 7 7 7 7 7
19 18 18 18 17 17 16 16 16 15 14 13 12 12 11 11 10 10 10 9 9 9 9 9 8 8 8 8 8 8 8 8 8 8 8 7 7 7 7 7 7 7 6
19 19 19 19 18 18 17 16 14 12 11 11 11 12 11 11 11 10 10 9 9 9 9 9 8 8 8 8 8 8 8 8 8 8 8 7 7 7 7 7 6 6 6
20 20 19 19 19 18 17 15 14 13 13 14 13 13 12 11 11 10 10 10 9 9 9 9 9 8 8 8 8 8 8 8 8 8 8 7 7 7 7 7 6 6 6
20 20 20 19 19 18 17 16 15 15 15 14 13 12 12 11 11 10 10 10 9 9 9 9 9 8 8 8 8 8 8 8 8 7 8 8 7 7 7 7 6 6 6
20 20 20 19 19 18 18 17 16 15 15 14 13 12 12 11 11 10 10 10 10 9 9 9 9 8 8 8 8 8 8 8 8 7 7 7 7 7 7 7 6 6 5
Wind_Speed
8 12 20 21 20 19 17 16 15 15 15 15 15 15 15 15 15 15 15 15 15 15 15 15 16 16 16 17 18 19 19 19 20 19 19 18 18 18 18 18 17 17 18
11 17 22 22 21 20 18 17 16 16 15 15 15 15 15 15 15 14 14 15 15 15 15 15 15 15 16 16 16 17 17 18 18 18 18 17 17 17 17 17 16 15 17
14 19 22 23 22 21 19 18 16 16 15 15 15 15 15 14 14 14 14 14 15 15 14 14 14 15 15 15 16 16 16 17 17 17 16 16 15 16 16 16 16 15 15
16 18 20 23 22 21 20 19 18 16 15 15 15 15 14 14 14 14 14 14 15 14 14 14 14 14 15 15 15 16 16 16 16 15 15 14 13 14 15 14 14 14 14
14 16 20 24 23 22 21 20 18 17 16 15 15 15 14 14 14 14 14 14 14 13 13 13 13 13 14 14 14 14 15 15 15 15 14 13 11 13 13 13 13 13 13
12 15 21 24 23 22 22 20 19 18 16 15 15 15 14 14 14 13 13 13 12 12 12 12 12 12 13 13 13 14 13 13 13 14 13 12 10 11 12 12 11 11 11
13 15 20 24 23 23 22 21 20 18 17 16 15 15 14 14 13 13 13 12 12 12 12 12 12 12 12 12 13 12 12 11 11 11 11 11 9 11 11 11 10 10 10
14 14 19 24 23 23 22 21 20 19 17 16 15 15 14 13 13 13 12 12 11 11 11 11 11 11 11 11 11 11 10 9 9 9 9 9 9 10 10 10 10 9 9
11 11 13 19 22 23 22 21 20 19 18 17 16 15 14 14 13 13 12 12 11 11 11 10 10 10 10 10 10 9 9 8 8 6 6 7 8 8 9 9 9 9 9
10 9 9 14 17 19 20 22 21 20 18 17 17 16 15 14 13 13 12 11 11 10 10 9 9 9 9 8 8 8 7 7 5 5 5 6 7 8 8 8 8 8 9
12 9 8 10 14 16 18 20 21 20 19 18 17 16 14 12 12 12 11 10 10 10 9 8 8 8 8 7 7 7 6 5 3 3 4 5 6 7 8 7 8 8 9
19 15 10 10 12 14 16 17 17 17 17 16 16 15 14 13 12 11 11 10 9 8 8 7 7 7 7 7 6 6 5 4 3 3 4 5 6 7 7 7 8 8 9
20 17 14 12 12 12 11 13 13 13 14 15 16 16 15 13 11 10 8 7 7 7 6 6 7 6 6 5 5 4 3 3 2 2 4 5 5 6 7 7 8 9 9
17 18 15 13 12 12 12 11 12 11 12 12 15 17 15 10 8 8 6 6 6 6 6 5 4 4 4 4 3 3 3 2 2 2 3 4 5 6 6 7 8 9 10
18 19 17 16 15 12 10 10 11 11 12 14 15 17 16 11 7 7 6 6 6 6 5 4 3 3 2 2 3 3 2 2 2 2 3 4 4 5 6 7 8 9 9
19 20 18 18 17 14 12 10 10 12 14 15 15 17 18 14 11 8 6 6 6 7 6 5 4 2 2 2 2 2 2 1 2 2 3 4 5 6 6 7 8 8 9
20 19 20 19 18 17 15 12 11 13 15 13 14 17 18 16 14 11 7 6 7 8 7 5 3 2 2 2 2 2 2 2 2 3 4 5 6 7 7 7 8 8 8
15 17 19 18 19 19 16 13 11 13 14 13 15 17 18 17 16 12 7 6 9 9 7 4 3 2 2 1 1 2 2 2 2 3 4 4 5 6 6 7 7 8 8
17 18 19 20 21 20 17 13 11 12 12 13 15 16 17 18 17 14 9 9 11 8 5 4 2 2 2 2 2 2 3 2 2 3 4 4 4 4 5 6 6 7 7
15 17 18 19 19 17 14 10 9 10 11 13 14 16 18 18 18 15 10 10 11 6 5 4 3 2 2 3 3 3 3 3 3 3 2 3 3 3 3 4 5 6 7
14 16 19 20 19 17 15 15 15 15 14 12 12 16 19 19 18 15 9 9 9 7 7 7 4 4 2 2 3 2 3 3 3 2 2 2 2 2 2 3 3 4 5
18 19 20 21 21 20 18 17 14 12 10 10 9 13 18 19 19 16 11 9 9 7 7 7 5 4 2 2 3 2 2 3 2 2 1 1 1 2 2 2 2 2 3
18 21 20 23 23 23 20 12 9 7 6 8 12 13 15 19 19 17 15 12 10 9 9 9 8 7 4 2 2 4 3 4 2 2 1 1 1 0 1 0 1 1 1
19 19 20 22 22 22 20 17 19 15 15 16 12 12 12 17 18 18 17 15 12 9 9 9 8 6 6 4 2 1 2 4 3 1 2 2 1 1 1 1 1 1 0
16 16 18 19 21 21 22 22 22 18 15 10 9 12 13 13 15 17 17 14 12 10 10 10 9 7 6 6 5 3 2 2 2 3 3 3 2 2 2 2 2 2 1
11 12 14 17 19 20 22 23 23 21 16 13 13 15 14 11 12 14 15 14 13 11 11 10 10 10 8 6 5 5 5 4 4 4 4 3 3 3 2 2 2 3 3
Wind_Direction
185 182 172 159 154 151 147 143 137 132 128 125 121 117 113 107 103 99 96 94 92 88 86 84 84 82 81 78 76 74 72 70 68 66 66 67 66 65 63 60 57 52 52
159 171 169 160 156 153 151 147 141 136 131 128 124 120 117 112 106 103 101 99 96 93 89 88 87 86 85 82 80 78 76 73 71 67 62 59 65 65 63 60 58 56 55
154 166 166 161 158 156 153 150 144 140 137 131 128 124 121 117 111 107 105 101 98 95 93 91 90 89 87 86 83 81 79 76 72 66 56 47 55 65 64 62 59 58 56
155 163 163 162 159 157 155 150 146 143 140 135 132 128 125 122 117 113 108 104 100 97 94 93 93 92 89 87 85 83 81 78 71 61 50 43 47 64 63 61 60 58 56
154 160 164 162 159 157 155 152 149 146 142 137 134 132 130 126 121 116 112 107 103 100 99 98 98 97 92 88 87 85 83 78 68 58 49 41 41 62 63 60 58 56 54
153 159 166 163 161 159 156 154 152 149 145 143 140 137 133 130 126 121 116 112 109 106 104 103 102 99 94 92 91 89 86 77 65 55 45 35 36 57 59 56 53 51 48
155 160 167 164 163 161 158 157 155 153 151 148 146 141 138 135 131 127 124 120 116 113 111 109 106 102 98 95 92 90 87 77 66 54 40 28 36 51 52 49 45 43 41
156 160 168 166 165 162 161 160 158 157 156 155 152 148 145 142 138 135 131 127 123 118 114 112 109 105 100 96 93 90 84 76 68 53 36 21 35 43 43 40 37 34 33
154 159 166 168 165 165 164 163 162 161 160 159 156 153 150 147 145 142 138 133 128 123 118 115 111 107 102 98 94 89 85 81 70 49 27 15 27 34 35 34 30 26 25
159 164 166 165 164 165 166 167 165 165 163 162 159 155 153 153 151 146 142 139 133 128 124 119 113 108 101 95 90 88 87 82 69 45 18 3 20 28 30 30 27 24 24
175 178 171 165 164 164 165 169 167 166 166 164 159 155 150 146 143 141 144 145 142 137 130 123 113 103 91 84 81 81 80 76 64 28 356 355 17 23 27 30 31 29 28
185 186 180 172 165 164 168 169 166 165 166 160 156 151 146 143 140 141 152 153 147 138 129 121 109 92 83 75 71 73 73 67 51 8 345 355 16 23 30 36 38 36 34
185 185 184 177 170 168 166 165 164 162 159 156 155 152 149 144 142 143 147 148 137 123 106 96 88 85 81 75 69 67 66 60 42 11 353 358 18 25 35 39 42 42 41
184 189 185 181 176 173 168 167 166 162 160 159 159 157 153 148 146 149 149 145 134 127 114 102 98 89 78 71 75 74 72 63 42 19 9 18 30 30 39 47 48 45 43
188 190 189 185 183 178 171 172 172 170 168 165 163 165 164 160 159 160 160 159 156 150 143 131 120 105 82 67 75 82 66 49 43 50 36 36 44 41 49 53 47 41 38
194 193 190 189 187 183 183 181 178 175 172 170 170 172 172 171 169 166 164 166 171 171 166 159 152 134 105 89 71 64 54 50 70 79 70 61 57 56 61 54 46 39 34
195 192 192 191 189 189 188 184 180 179 176 176 177 177 178 178 176 172 168 175 183 179 169 156 146 126 113 97 67 51 54 63 90 99 100 89 75 65 62 55 46 38 31
191 192 193 192 193 194 193 188 184 182 180 182 181 181 182 182 181 175 174 183 184 175 165 151 140 130 125 108 77 35 41 54 80 103 107 101 90 74 63 56 46 37 28
193 192 193 194 195 196 194 189 185 183 185 185 184 184 187 186 184 180 183 184 177 170 165 158 143 145 149 133 97 52 31 39 61 95 101 105 102 88 71 59 48 37 25
195 193 194 197 197 194 191 186 185 187 191 190 190 190 187 189 186 183 183 180 173 165 166 164 154 135 133 130 93 58 30 24 58 76 87 97 104 98 82 70 57 38 26
195 194 195 196 196 190 192 193 195 199 197 196 195 192 189 189 187 185 183 176 176 179 179 169 151 142 128 124 100 45 18 33 55 50 58 83 88 91 86 77 62 43 27
201 200 199 199 196 194 197 198 199 195 195 195 190 192 192 190 189 189 184 182 181 178 174 172 157 144 138 139 132 109 11 347 357 24 23 79 66 66 66 70 56 40 29
205 203 202 201 199 198 196 189 178 167 166 185 195 198 195 193 191 190 189 184 183 180 184 184 174 161 160 153 140 147 157 223 277 320 346 12 355 13 5 32 32 8 14
210 206 203 201 200 198 192 189 187 193 198 200 196 196 191 192 192 192 189 187 185 185 185 186 180 169 154 161 152 119 143 154 164 269 308 313 313 264 272 269 297 275 307
207 203 203 201 200 196 193 194 195 200 203 191 179 184 189 192 193 192 190 188 187 188 187 182 178 176 170 163 163 154 133 100 131 165 246 290 309 284 261 248 239 230 226
203 198 197 197 200 196 194 196 198 200 193 181 184 189 191 192 193 193 191 190 189 188 187 185 183 181 181 170 167 164 162 164 183 177 204 234 258 284 295 273 229 221 224
Height
1504 1507 1512 1515 1518 1521 1524 1526 1528 1530 1531 1533 1534 1535 1536 1537 1538 1539 1540 1540 1541 1542 1542 1543 1543 1544 1544 1544 1545 1545 1545 1545 1546 1546 1546 1546 1546 1546 1545 1545 1546 1546 1546
1501 1506 1510 1514 1517 1521 1523 1526 1528 1530 1532 1533 1534 1535 1537 1537 1538 1539 1540 1541 1541 1542 1542 1543 1543 1544 1544 1545 1545 1545 1545 1546 1546 1546 1546 1546 1546 1546 1546 1546 1546 1546 1546
1501 1505 1509 1513 1517 1520 1523 1526 1528 1530 1532 1533 1535 1536 1537 1538 1539 1540 1541 1541 1542 1542 1543 1543 1544 1544 1545 1545 1546 1546 1546 1546 1546 1547 1547 1547 1547 1547 1547 1546 1546 1546 1546
1500 1504 1508 1512 1516 1519 1522 1525 1528 1530 1532 1533 1535 1536 1537 1538 1539 1540 1541 1542 1542 1542 1543 1543 1544 1545 1545 1546 1546 1546 1547 1547 1547 1548 1548 1548 1548 1548 1548 1548 1547 1547 1547
1500 1504 1507 1512 1515 1519 1522 1525 1527 1530 1532 1533 1535 1536 1537 1538 1540 1541 1541 1542 1542 1543 1543 1544 1545 1545 1546 1546 1547 1547 1547 1548 1548 1549 1549 1549 1549 1550 1549 1549 1548 1548 1548
1500 1503 1507 1511 1515 1518 1521 1524 1527 1529 1531 1533 1535 1536 1537 1539 1540 1541 1541 1542 1543 1543 1544 1545 1545 1546 1547 1547 1548 1548 1549 1549 1550 1550 1550 1550 1550 1551 1550 1550 1549 1549 1549
1499 1504 1507 1511 1515 1518 1521 1524 1526 1529 1531 1533 1534 1536 1537 1539 1540 1540 1541 1542 1543 1544 1545 1545 1546 1547 1548 1548 1549 1549 1550 1550 1551 1551 1551 1551 1551 1552 1551 1551 1550 1550 1549
1500 1503 1507 1511 1514 1517 1520 1523 1526 1528 1530 1532 1534 1536 1537 1538 1539 1541 1542 1543 1544 1545 1545 1546 1547 1548 1548 1549 1550 1550 1551 1551 1551 1551 1551 1551 1552 1552 1552 1551 1551 1550 1550
1501 1504 1507 1510 1514 1517 1520 1523 1525 1528 1530 1532 1534 1535 1537 1538 1540 1541 1542 1543 1544 1545 1546 1547 1548 1548 1549 1550 1550 1551 1551 1552 1552 1552 1552 1552 1552 1552 1552 1551 1550 1550 1550
1501 1503 1506 1509 1513 1516 1519 1522 1524 1527 1529 1531 1533 1535 1536 1538 1540 1541 1542 1543 1545 1546 1547 1547 1548 1549 1550 1550 1551 1551 1552 1552 1552 1552 1552 1552 1552 1552 1551 1551 1550 1550 1549
1499 1502 1505 1508 1511 1514 1517 1520 1523 1526 1528 1531 1533 1534 1536 1538 1539 1541 1542 1544 1545 1546 1547 1548 1549 1550 1550 1551 1551 1552 1552 1552 1552 1552 1552 1551 1551 1552 1551 1551 1550 1549 1549
1495 1499 1502 1506 1509 1512 1516 1519 1522 1524 1527 1529 1531 1533 1535 1537 1539 1541 1542 1543 1545 1546 1547 1548 1549 1550 1551 1551 1552 1552 1552 1552 1552 1552 1552 1551 1551 1551 1551 1550 1550 1549 1548
1491 1495 1499 1503 1507 1510 1513 1517 1520 1522 1525 1528 1530 1532 1535 1537 1538 1540 1542 1543 1544 1546 1547 1548 1549 1550 1551 1551 1552 1552 1552 1553 1552 1552 1552 1551 1551 1551 1551 1550 1550 1549 1548
1489 1493 1496 1500 1504 1508 1511 1514 1517 1520 1523 1526 1528 1531 1533 1535 1537 1539 1541 1543 1544 1546 1547 1548 1549 1550 1551 1551 1552 1552 1552 1552 1552 1552 1552 1551 1551 1550 1550 1550 1550 1549 1548
1486 1490 1493 1497 1501 1505 1509 1512 1515 1518 1521 1524 1527 1529 1532 1534 1537 1539 1540 1542 1544 1545 1547 1548 1549 1550 1551 1551 1552 1552 1552 1552 1552 1551 1551 1551 1550 1550 1550 1550 1549 1548 1547
1483 1487 1490 1494 1498 1502 1505 1509 1512 1515 1518 1522 1524 1527 1530 1533 1535 1537 1539 1541 1543 1544 1546 1547 1549 1549 1550 1551 1551 1551 1551 1551 1551 1551 1551 1550 1550 1550 1549 1549 1548 1548 1547
1479 1483 1487 1490 1495 1498 1502 1506 1509 1512 1516 1519 1522 1525 1528 1531 1533 1536 1538 1540 1542 1543 1545 1546 1548 1549 1550 1550 1550 1551 1551 1551 1551 1550 1550 1550 1549 1549 1549 1548 1547 1547 1546
1476 1479 1483 1487 1491 1494 1498 1502 1505 1509 1512 1516 1519 1522 1525 1528 1531 1534 1536 1538 1540 1542 1544 1545 1547 1548 1549 1549 1550 1550 1550 1550 1550 1549 1549 1549 1549 1548 1548 1547 1547 1546 1545
1471 1475 1479 1482 1486 1490 1494 1498 1502 1506 1509 1512 1516 1519 1522 1525 1528 1531 1534 1536 1538 1540 1542 1544 1545 1546 1547 1548 1548 1549 1549 1549 1548 1548 1548 1548 1548 1548 1547 1547 1546 1545 1543
1467 1470 1474 1478 1481 1486 1490 1494 1498 1502 1505 1508 1511 1515 1518 1522 1525 1528 1531 1534 1536 1538 1540 1542 1543 1545 1546 1547 1547 1547 1547 1547 1547 1547 1547 1547 1547 1547 1546 1545 1545 1543 1542
1460 1464 1467 1471 1476 1480 1484 1487 1491 1494 1498 1502 1506 1510 1514 1518 1521 1524 1527 1530 1533 1535 1537 1539 1541 1543 1544 1545 1546 1546 1546 1545 1545 1546 1546 1546 1546 1545 1545 1544 1543 1542 1540
1452 1456 1460 1464 1468 1472 1476 1479 1484 1488 1492 1496 1501 1505 1509 1513 1517 1520 1523 1526 1529 1532 1534 1536 1538 1540 1541 1543 1544 1544 1544 1545 1543 1544 1544 1544 1544 1544 1543 1542 1541 1540 1538
1444 1448 1452 1456 1460 1464 1469 1474 1479 1484 1488 1491 1495 1498 1503 1507 1511 1515 1519 1522 1525 1528 1531 1533 1535 1537 1539 1540 1541 1543 1542 1542 1542 1542 1542 1542 1542 1542 1541 1540 1539 1538 1536
1436 1441 1444 1448 1452 1456 1461 1465 1469 1473 1476 1480 1485 1490 1496 1501 1506 1510 1514 1517 1521 1524 1527 1529 1532 1534 1536 1537 1538 1539 1540 1540 1540 1540 1540 1539 1539 1539 1539 1538 1537 1535 1534
1429 1433 1437 1440 1444 1448 1452 1456 1461 1465 1470 1475 1480 1485 1490 1495 1500 1504 1509 1512 1516 1519 1522 1525 1528 1530 1532 1534 1535 1536 1537 1537 1537 1537 1537 1537 1537 1537 1536 1535 1534 1533 1531
1421 1425 1429 1432 1436 1440 1444 1448 1453 1457 1463 1468 1472 1478 1483 1488 1493 1498 1502 1506 1510 1514 1517 1520 1523 1526 1528 1530 1531 1532 1533 1534 1534 1534 1534 1533 1533 1534 1533 1532 1531 1530 1528